Flag for Germany Weather past 2 weeks in Leverkusen, North Rhine-Westphalia, Germany

34 °F

Passing clouds.

Feels Like: 27 °F
Forecast: 39 / 45 °F
Wind: 8 mph from Southeast

Location: Koeln / Bonn

Current Time: Nov 27, 2015 at 8:57:33 PM

Latest Report: Nov 27, 2015 at 8:20 PM

Visibility: N/A

Pressure: 29.92 "Hg

Humidity: 93%

Dew point: 32 °F

Location of LeverkusenLocation

Historic Weather in Leverkusen — Graph


Leverkusen temperature yesterday

Maximum temperature yesterday: 45 °F (at 2:20 PM)
Minimum temperature yesterday: 30 °F (at 11:20 PM)
Average temperature yesterday: 38 °F

Past Weeks' High & Low Weather Summary

High61 °F (Nov 15, 11:50 AM)100% (Nov 14, 11:20 PM)30.33 "Hg (Nov 14, 11:20 PM)
Low30 °F (Nov 26, 11:20 PM)59% (Nov 18, 9:50 AM)29.39 "Hg (Nov 21, 1:50 PM)
Average46 °F85%29.94 "Hg
* Reported Nov 12 7:20 PM — Nov 27 7:20 PM, Leverkusen, Weather by CustomWeather, © 2015

Note: Actual official high and low records may vary slightly from our data, if they occured in-between our weather recording intervals... More about our weather records


Leverkusen weather history for previous 24 hours

Time TempWeatherWind HumidityBarometerVisibility
7:20 PM
Fri, Nov 27
36 °FClear.7 mph87%29.95 "Hg10 mi
6:50 PM36 °FClear.8 mph93%29.95 "Hg10 mi
6:20 PM36 °FClear.7 mph93%29.95 "Hg10 mi
5:50 PM36 °FClear.7 mph93%29.95 "Hg10 mi
5:20 PM36 °FClear.8 mph93%29.95 "Hg10 mi
4:50 PM37 °FClear.8 mph87%29.95 "Hg10 mi
4:20 PM37 °FSunny.9 mph87%29.98 "Hg10 mi
3:50 PM39 °FSunny.10 mph87%29.98 "Hg10 mi
3:20 PM41 °FSunny.10 mph81%29.98 "Hg10 mi
2:50 PM43 °FSunny.9 mph76%29.98 "Hg10 mi
2:20 PM43 °FPassing clouds.12 mph76%30.01 "HgN/A
1:50 PM43 °FPassing clouds.12 mph71%30.01 "HgN/A
1:20 PM43 °FSunny.13 mph76%30.04 "Hg10 mi
12:50 PM43 °FSunny.10 mph76%30.04 "Hg10 mi
12:20 PM41 °FPassing clouds.9 mph87%30.07 "HgN/A
11:50 AM41 °FPassing clouds.9 mph87%30.07 "HgN/A
11:20 AM37 °FPassing clouds.9 mph93%30.09 "HgN/A
10:50 AM37 °FScattered clouds.7 mph100%30.09 "Hg4 mi
10:20 AM36 °FScattered clouds.9 mph100%30.09 "Hg4 mi
9:50 AM36 °FFog.6 mph100%30.09 "Hg3 mi
9:20 AM34 °FFog.9 mph100%30.09 "Hg2 mi
8:50 AM34 °FFog.6 mph100%30.12 "Hg2 mi
7:20 AM34 °FFog.7 mph100%30.12 "Hg2 mi
6:50 AM34 °FFog.5 mph100%30.12 "Hg2 mi
6:20 AM32 °FIce fog.5 mph100%30.12 "Hg2 mi
5:50 AM32 °FIce fog.5 mph100%30.12 "Hg1 mi
4:50 AM32 °FIce fog.3 mph100%30.15 "Hg1 mi
4:20 AM32 °FIce fog.3 mph100%30.15 "Hg1 mi
3:50 AM32 °FIce fog.5 mph100%30.15 "Hg1 mi
3:20 AM30 °FIce fog.5 mph100%30.15 "Hg2 mi
2:50 AM30 °FFog.5 mph100%30.18 "Hg6 mi
2:20 AM30 °FFog.3 mph100%30.18 "Hg6 mi
1:50 AM30 °FFog.1 mph100%30.18 "Hg6 mi
1:20 AM30 °FFog.2 mph100%30.18 "HgN/A
12:50 AM30 °FFog.3 mph100%30.18 "HgN/A
12:20 AM30 °FPassing clouds.3 mph100%30.18 "HgN/A
11:50 PM
Thu, Nov 26
30 °FFog.2 mph100%30.18 "HgN/A
11:20 PM30 °FFog.3 mph100%30.18 "Hg6 mi
10:50 PM32 °FFog.2 mph100%30.18 "HgN/A
10:20 PM32 °FFog.2 mph100%30.18 "HgN/A
9:50 PM32 °FFog.3 mph100%30.18 "HgN/A
9:20 PM34 °FFog.1 mph100%30.18 "HgN/A
8:50 PM34 °FFog.2 mph100%30.18 "HgN/A
8:20 PM34 °FFog.2 mph100%30.18 "HgN/A
Weather by CustomWeather, © 2015

See weather overviewHow to use our weather pages